Temp_Advection
nan nan nan nan nan nan nan nan nan nan nan nan nan nan nan nan nan nan nan nan nan nan nan nan nan nan nan nan nan nan nan nan nan nan nan nan nan nan nan nan nan nan nan nan nan nan nan nan nan nan nan nan nan nan
nan -0 0 0 -1 -0 -0 0 0 0 0 -0 -0 -0 0 0 0 -0 -0 -0 -0 -0 -1 -1 -1 -1 -0 0 -0 -0 -0 -0 -0 -0 -0 0 0 -0 0 -0 -0 -0 -0 -0 -0 -0 -0 -0 0 0 0 0 0 nan
nan 0 0 -0 -0 -0 -0 0 -0 0 0 0 -0 -0 -0 0 0 0 0 -0 -0 -0 -2 -2 -2 -0 -0 -0 0 -0 -0 -0 0 -0 -0 -0 0 0 0 -0 -0 -0 -0 -0 -0 0 -0 -1 0 0 0 0 0 nan
nan 0 0 -0 0 0 -0 0 -0 0 0 0 -0 -0 -0 -0 0 0 0 0 -0 -0 -0 -1 -0 -0 -0 0 -0 -0 -0 -0 0 0 0 0 -0 -0 0 -0 0 -0 -0 0 0 -0 -0 -0 -0 0 0 0 0 nan
nan 0 0 0 -0 -0 -0 -0 0 -0 0 0 0 -0 -0 -0 0 0 0 0 -0 -0 -0 -1 -1 -0 0 0 0 0 0 0 0 0 0 -0 0 -0 0 -0 -0 -0 -0 -0 -0 -0 -0 -0 -0 0 1 1 0 nan
nan 0 0 0 -0 0 0 -0 -0 -0 0 0 -0 -0 -0 -0 0 0 -0 -0 -0 -0 -0 -0 -0 0 0 0 0 0 0 0 0 0 0 -0 -0 0 -0 -0 -0 -0 0 0 -0 -1 -0 -0 -0 0 0 0 0 nan
nan 0 0 0 -0 -0 0 0 -0 0 0 0 0 -0 -0 0 0 0 -0 0 -0 -0 -0 -1 0 0 0 0 0 0 0 0 0 0 0 -0 0 0 -0 -0 -0 -1 -0 -1 -0 -0 -0 -0 0 0 0 0 0 nan
nan 0 0 0 0 -0 -0 0 0 0 1 0 0 0 -0 -0 -0 -0 -0 -0 -0 -0 -0 -0 -0 0 0 0 -0 0 0 0 0 0 0 0 -0 0 0 -0 -1 -1 -2 -1 -1 -0 -0 -0 0 1 0 0 0 nan
nan 0 0 0 -0 -0 -0 -0 -0 -0 0 0 0 -0 0 -0 -0 -0 -0 -0 -0 -0 -0 -0 0 0 0 -0 -0 -0 0 -0 0 0 0 -0 0 0 -0 -0 -1 -1 -1 -2 -3 -1 -1 -0 0 0 1 0 0 nan
nan 0 0 0 -0 -0 -0 -0 -0 -0 -0 0 0 0 -0 -0 0 -0 -0 -0 -0 -0 -0 -0 -0 0 -0 0 -0 0 0 0 0 0 0 -0 0 -0 -0 -0 -0 -0 -0 -0 -1 -2 -1 -0 0 0 0 0 0 nan
nan 0 0 0 -0 -0 0 -0 -0 -0 -0 0 0 0 -0 -0 -0 -0 -0 -0 -0 -0 -0 -0 -0 0 0 0 0 -0 -0 0 -0 0 0 0 0 -0 -0 -0 -0 -0 -0 -0 -0 -1 -1 -0 -0 -0 1 0 0 nan
nan 0 0 -0 -0 -0 0 0 -0 -0 -0 -0 0 0 0 -0 -0 -0 -0 -0 -0 -0 0 0 0 0 0 0 -0 -0 -0 0 -0 -0 -0 0 -0 -0 -0 -0 0 -0 -0 -0 0 -0 -0 -0 -0 -0 0 1 0 nan
nan 0 0 -0 -0 0 -0 0 -0 -0 -0 0 0 0 -0 -0 -0 -0 0 0 0 0 0 0 0 0 0 -0 -0 0 0 -0 -0 -0 0 -0 -0 -0 -0 -0 -0 0 0 -0 0 -0 -0 -0 -0 0 1 1 0 nan
nan 0 0 -0 0 0 0 -0 -0 0 0 0 0 0 -0 -0 0 0 0 -0 -0 0 0 0 0 0 0 -0 0 0 0 -0 -0 -0 0 -0 -0 -0 -0 -0 -0 -0 0 0 -0 -0 -0 -0 -0 0 0 0 0 nan
nan 0 0 -0 0 0 -0 -0 -0 0 0 0 0 -0 -0 -0 -0 -0 0 0 -0 0 0 0 0 0 -0 0 -0 0 -0 -0 0 0 -0 -0 0 0 0 0 0 -0 -0 -0 -0 -0 -0 -0 -0 -0 0 0 0 nan
nan -0 -0 0 0 0 0 -0 -0 0 0 0 -0 -0 -0 0 0 -0 -0 0 -0 0 -0 0 -0 -0 0 -0 -0 -0 -0 0 0 0 0 0 0 0 0 0 0 0 0 0 -0 -0 -0 -0 -0 -0 -0 0 0 nan
nan -0 0 0 0 0 -0 -0 0 0 0 -0 -0 -0 -0 -0 -0 -0 0 0 0 -0 -0 -0 -0 0 -0 -0 0 0 0 0 0 -0 0 0 0 -0 -0 -0 0 0 0 0 -0 -0 -0 -0 -0 -0 -0 0 0 nan
nan 0 0 0 0 -0 -0 -0 0 0 0 -0 -0 -0 -0 -0 -0 0 0 0 0 0 -0 -0 0 0 -0 0 0 0 0 -0 -0 -0 -0 0 -0 0 -0 -0 -0 -0 -0 -0 -0 -0 -0 -0 0 -0 -0 -0 0 nan
nan 0 0 0 0 -0 0 0 0 0 0 -0 -0 -0 -0 0 0 0 0 0 0 -0 -0 -0 -0 0 0 0 -0 -0 -0 -0 0 0 0 0 0 0 -0 -0 -1 -0 -0 -0 -0 -0 -0 -0 -0 0 0 0 -0 nan
nan 0 0 0 -0 -0 0 0 0 0 -0 -0 0 -0 0 0 0 0 0 0 0 0 0 -0 -0 -0 -0 -0 -0 -0 0 0 0 0 0 0 0 -0 -0 -0 -0 -1 -0 -0 0 -0 -0 -0 -0 -0 0 0 0 nan
nan 0 0 0 -0 -0 -0 0 0 0 0 0 0 0 0 0 0 0 -0 0 0 0 -0 -3 -1 -0 0 0 0 0 0 0 0 0 0 0 0 -0 -0 -0 -0 -0 -0 -1 -0 0 0 -0 0 0 -0 -0 0 nan
nan 0 0 0 -0 0 0 0 0 0 0 0 0 0 0 0 0 0 0 0 -0 -1 -2 -1 -0 1 1 0 0 0 0 0 0 0 0 -0 0 0 -0 -0 -0 -0 -0 -0 -1 -0 -0 -0 -0 0 0 0 0 nan
nan 0 0 -0 0 0 0 0 0 0 0 -0 0 0 -0 -0 0 0 -0 -1 -1 -2 -1 0 0 0 1 1 0 0 0 0 0 0 0 0 0 0 0 0 -0 -0 -1 0 -0 -1 -0 0 -0 -0 0 0 0 nan
nan 0 0 1 1 0 1 1 0 0 0 0 -0 -0 -0 -0 0 0 -0 -1 -2 -0 0 1 1 1 0 -0 -0 0 0 0 0 0 -0 -0 0 0 -0 -0 0 0 -0 -1 -0 -0 0 0 -0 -0 -0 0 1 nan
nan 0 0 0 1 -0 -0 0 -0 0 -0 -0 -0 0 0 0 0 -0 -1 -1 -1 -0 -0 0 -0 -1 -1 -0 0 0 0 0 0 0 0 0 -0 -0 -0 -0 0 1 0 -1 -0 -0 -0 -0 -0 0 0 -0 0 nan
nan 1 0 -0 -0 -0 -0 -1 -1 -0 -0 -0 0 0 -0 -0 -0 -1 -1 -1 -0 -0 -1 -1 -1 -1 -1 -0 0 0 0 0 0 -0 1 1 1 -0 -1 -1 -1 1 1 0 -0 -0 -0 0 0 0 0 0 0 nan
nan 0 0 -0 -1 -1 -0 0 -0 -0 -0 -0 0 0 0 -0 -1 -1 -1 -0 -0 -0 -0 -0 -0 -0 0 0 0 0 1 1 0 -0 -0 0 1 1 1 -1 -1 -0 1 0 -0 -0 0 -0 0 1 0 -0 -0 nan
nan 0 -0 2 0 0 -0 0 0 -1 -0 -0 -1 -0 -0 -1 -1 -0 -0 -0 -0 0 0 0 0 0 1 1 1 1 1 1 0 -0 -1 -0 1 1 1 0 -0 0 0 0 0 -0 0 0 -0 0 0 -0 -0 nan
nan 0 -1 -0 1 0 -1 -1 -1 -1 -0 -0 -0 -0 -1 -1 -1 -0 -0 0 0 0 0 0 0 0 1 1 1 1 1 1 1 -1 -1 -1 0 2 1 -0 -0 1 1 0 0 -0 -0 -1 -0 -0 -0 0 0 nan
nan -0 -0 -1 0 -1 -1 -1 -0 0 1 0 -0 0 -1 -1 -1 -0 -0 -0 0 0 1 0 0 1 1 1 1 1 1 0 0 0 -0 -0 1 1 1 0 0 1 1 -0 -1 -1 -0 -0 -0 -0 0 0 0 nan
nan -0 0 0 0 -0 0 1 0 1 1 0 1 0 -1 -2 -3 -2 -1 -0 0 0 -0 0 1 1 1 1 0 -0 1 1 1 1 1 0 0 0 0 0 0 0 -0 -1 -1 -1 -0 -0 -0 -0 0 0 0 nan
nan 0 -1 0 0 1 1 1 1 1 0 -0 0 1 0 -0 -1 -2 -1 0 0 -0 -0 0 0 0 0 0 0 0 0 1 1 1 1 1 0 0 1 -0 -0 -0 -0 -0 -0 -0 -0 -0 -0 -0 0 1 0 nan
nan nan nan nan nan nan nan nan nan nan nan nan nan nan nan nan nan nan nan nan nan nan nan nan nan nan nan nan nan nan nan nan nan nan nan nan nan nan nan nan nan nan nan nan nan nan nan nan nan nan nan nan nan nan
Wind_Speed
12 18 21 14 18 15 15 17 11 18 18 13 13 11 9 11 12 11 6 4 7 6 18 8 6 4 4 5 4 6 4 0 2 2 2 2 2 2 2 4 5 6 5 3 3 4 7 4 5 3 4 7 8 8
22 25 26 20 18 11 15 14 10 16 18 14 11 13 10 11 11 11 11 5 7 9 11 11 16 16 10 4 6 9 3 4 4 1 1 1 1 1 1 2 2 4 5 4 7 5 4 4 6 8 9 12 10 8
24 23 20 18 13 11 16 13 10 13 18 15 14 11 11 13 12 11 15 13 6 7 22 19 18 15 15 10 8 5 4 5 4 2 2 1 3 2 2 4 2 3 4 3 1 2 7 18 10 7 12 11 9 5
21 18 15 14 12 12 13 12 10 12 18 18 15 15 14 14 14 17 17 12 8 6 4 8 9 9 15 13 12 9 5 7 3 3 2 2 2 4 3 2 2 4 4 2 5 8 6 6 6 8 11 10 6 2
18 16 13 10 12 12 11 10 9 12 18 20 15 15 16 17 16 15 15 13 12 11 4 11 5 12 12 13 13 12 11 8 8 3 2 2 2 2 2 1 3 4 5 3 4 7 5 8 8 10 10 9 5 5
17 16 14 16 12 12 10 11 10 14 19 16 17 19 16 16 13 9 3 2 14 17 4 3 3 11 11 11 12 12 12 10 5 4 3 3 3 2 2 2 5 11 10 14 8 14 18 19 12 12 8 6 5 6
17 17 16 18 16 12 10 11 12 15 21 16 17 11 8 8 7 6 3 4 11 8 5 4 2 7 9 9 9 9 12 6 5 3 3 3 4 7 3 4 3 14 15 21 13 15 12 13 10 9 7 5 6 7
19 19 17 15 11 8 11 12 13 17 20 17 11 2 4 5 3 11 11 6 10 12 6 3 0 4 8 5 4 7 6 6 5 3 2 3 3 4 3 4 12 16 22 13 16 11 11 12 10 10 8 8 8 10
16 18 19 14 11 8 12 13 14 18 17 16 2 2 1 2 1 2 5 6 6 8 4 2 1 2 8 4 4 6 5 2 5 2 3 3 2 3 3 10 15 18 15 21 22 14 10 8 8 10 11 11 12 14
14 18 14 14 14 11 12 12 14 16 15 2 4 3 1 2 4 3 3 4 5 5 5 3 2 1 5 5 4 4 5 2 2 1 4 3 2 9 11 13 13 16 16 16 17 14 13 15 12 11 13 12 12 15
13 14 15 11 9 8 13 10 14 14 7 2 3 2 4 1 1 1 2 4 4 2 4 4 2 1 3 1 1 1 1 0 0 1 2 2 2 3 16 15 14 13 13 12 12 16 18 17 14 14 14 15 14 16
14 17 17 15 9 9 12 8 12 11 8 1 3 2 3 2 2 2 2 2 3 3 4 2 2 1 2 1 1 1 2 1 3 3 1 2 1 12 16 17 15 14 13 12 9 8 6 9 12 15 15 17 17 18
9 9 10 8 8 10 10 8 10 10 6 1 2 2 2 3 3 4 4 2 2 2 1 1 1 2 2 2 3 1 2 3 2 2 2 1 6 14 16 16 15 13 12 11 11 8 4 4 6 8 12 16 17 18
5 6 6 9 7 11 11 8 7 8 2 2 3 4 3 3 3 3 1 1 1 2 3 3 2 1 2 2 1 2 2 1 2 2 3 1 9 13 15 16 16 17 15 14 13 11 8 4 4 2 7 12 14 17
6 6 7 7 9 13 9 6 5 6 3 3 3 4 4 3 2 2 2 1 1 1 2 2 1 1 1 2 2 1 2 4 4 3 2 3 5 10 15 18 18 17 16 15 13 10 8 4 4 5 7 10 12 15
7 8 9 8 9 5 4 4 5 2 1 2 4 3 4 0 2 3 3 2 3 3 2 2 1 2 3 2 2 4 2 5 2 3 3 3 2 7 13 16 19 17 16 15 13 11 8 6 5 6 8 10 12 13
11 13 10 6 5 5 4 4 1 1 1 3 5 7 8 5 3 3 4 3 3 1 2 2 3 3 1 2 3 3 3 2 10 8 2 3 4 5 11 15 16 16 15 15 14 12 9 6 5 6 9 11 13 15
14 12 9 6 4 3 4 2 2 3 5 6 3 2 6 5 2 3 3 3 2 2 2 1 1 3 3 4 3 3 5 11 9 5 2 3 7 7 12 15 13 12 13 14 13 12 10 8 6 6 7 10 12 13
9 9 8 6 4 2 2 2 3 3 5 3 5 6 4 5 8 7 5 5 4 4 3 3 3 4 4 4 4 12 16 13 9 6 5 8 8 9 12 14 14 12 11 12 12 11 10 9 8 7 7 9 13 15
12 9 8 7 5 3 2 2 3 3 3 2 4 3 4 4 6 10 12 10 7 3 2 4 5 4 5 4 7 11 11 8 7 7 7 5 7 9 11 12 13 14 14 13 11 12 11 8 7 8 8 9 12 15
17 15 13 8 7 7 3 3 4 3 3 3 3 5 4 5 6 8 10 14 6 5 3 13 15 10 10 7 9 8 7 6 7 7 7 9 9 10 11 12 14 14 14 14 14 13 12 13 10 9 10 11 11 13
21 21 16 12 6 5 5 5 3 2 2 3 3 3 4 3 4 5 7 9 7 10 13 13 14 15 15 14 11 9 9 8 8 7 8 9 11 11 11 12 14 14 15 16 16 15 15 13 13 13 12 13 14 15
23 24 12 8 6 6 2 4 3 2 1 2 1 2 3 3 4 5 5 9 10 17 21 21 18 14 13 14 12 12 11 11 9 8 9 11 13 14 16 15 17 20 21 18 16 18 18 16 13 14 12 14 15 16
20 13 8 9 9 4 4 4 3 3 2 1 2 3 3 3 4 3 4 6 12 12 15 20 19 17 17 16 15 14 12 12 12 12 11 12 15 14 16 17 18 19 19 22 20 17 16 16 14 14 13 14 15 18
5 8 7 3 6 4 2 1 2 2 3 3 3 3 2 4 1 3 3 6 13 16 16 15 17 18 18 14 12 11 14 15 15 17 16 15 18 21 21 19 21 20 18 18 18 17 15 15 15 15 16 17 17 20
5 11 10 12 5 7 6 5 6 6 3 4 4 1 2 1 1 6 3 5 8 9 16 18 18 17 16 14 11 10 11 13 16 18 19 20 22 24 25 25 26 26 18 16 18 20 20 18 17 15 17 18 19 21
6 6 7 6 7 7 3 3 5 3 5 5 3 3 2 2 6 4 5 6 4 8 10 11 12 12 8 7 9 11 14 16 18 20 23 26 29 28 25 25 27 26 24 22 18 20 22 21 20 18 17 17 19 23
8 14 9 16 8 8 5 4 6 7 4 7 8 5 5 6 4 2 4 5 10 10 11 12 14 14 16 17 19 20 21 21 23 27 29 29 27 26 25 22 23 25 27 26 22 20 21 21 22 22 18 17 18 20
7 10 17 4 5 7 11 7 6 10 10 14 6 4 4 6 5 4 5 7 11 12 11 12 13 16 20 23 25 26 26 26 28 28 28 29 30 29 25 23 24 24 22 21 19 19 20 20 19 21 21 17 17 17
12 26 6 7 6 7 12 15 7 11 16 14 9 7 9 14 16 13 13 13 15 16 18 20 22 23 23 24 26 27 27 25 22 24 27 30 31 30 28 25 22 21 22 24 24 21 18 18 16 17 17 18 19 20
19 19 6 8 5 7 9 16 10 11 10 11 16 17 18 18 28 32 31 28 28 28 27 25 23 21 19 17 16 17 19 19 21 22 24 27 28 28 27 25 21 19 20 20 19 18 16 15 17 19 23 22 19 20
12 12 9 4 3 6 9 10 8 6 5 6 7 11 10 7 8 16 21 20 18 17 17 15 13 11 12 12 15 18 20 22 22 23 23 25 26 25 22 19 16 16 16 18 17 16 15 15 15 17 20 19 19 21
5 5 5 6 5 5 7 6 3 2 4 4 5 5 7 6 8 8 9 11 11 11 11 9 9 8 10 13 15 17 19 21 21 22 21 20 21 23 22 19 15 12 11 12 13 13 13 13 14 16 18 19 19 19
Wind_Direction
275 295 282 279 295 288 296 309 313 313 326 315 324 330 339 332 336 342 309 294 333 287 275 263 248 266 279 176 148 153 95 137 55 136 166 227 190 229 174 176 176 180 189 192 175 217 258 194 128 201 238 307 303 308
286 295 282 259 279 287 288 295 299 308 319 319 316 315 325 317 321 315 313 275 300 277 268 279 253 234 233 179 146 162 139 147 181 147 213 141 263 13 171 238 167 209 200 183 190 213 250 283 270 285 310 309 314 306
282 271 260 259 274 275 294 305 287 307 310 310 311 305 299 302 306 298 297 303 299 283 294 274 260 235 215 188 168 148 180 163 168 188 159 151 239 154 203 237 233 262 195 222 206 295 247 270 280 296 315 308 312 291
257 256 262 241 276 273 295 301 287 305 305 310 305 303 297 298 285 287 279 289 252 275 266 266 212 211 207 203 203 205 164 159 172 192 191 210 235 186 238 249 208 228 358 223 257 298 314 249 252 312 313 307 303 258
246 248 247 251 267 271 306 292 287 306 304 315 306 307 301 293 286 272 266 264 242 234 307 290 289 187 188 203 205 207 200 182 200 186 190 217 245 179 235 218 240 211 216 182 246 246 245 282 303 310 306 303 283 238
234 246 231 243 260 256 265 288 301 310 306 315 313 306 298 292 289 265 286 267 217 226 262 268 211 164 183 190 187 192 192 187 193 200 193 209 223 216 232 248 244 257 282 279 263 298 291 299 278 284 282 289 257 221
237 240 236 242 256 268 308 303 306 311 315 311 313 310 315 297 240 202 189 123 195 192 239 269 173 134 155 159 174 185 194 200 203 213 213 209 216 194 248 253 271 325 325 327 288 280 275 256 258 260 261 269 229 205
238 245 250 240 256 287 299 320 320 314 318 317 320 344 54 54 123 205 226 267 190 203 258 271 208 122 159 159 148 172 171 184 210 227 203 206 190 217 251 312 340 339 324 309 340 338 283 278 241 237 253 247 219 199
248 246 250 243 243 288 304 319 321 319 326 326 205 133 206 79 109 256 221 244 231 221 285 284 145 160 166 169 151 164 172 177 200 213 209 179 191 222 49 334 331 331 325 304 305 298 289 266 256 253 244 228 219 201
237 248 245 249 264 275 301 316 315 322 332 298 176 205 223 212 278 271 184 185 214 217 234 260 281 125 168 170 186 156 166 221 190 196 153 229 248 115 9 350 334 329 322 315 305 293 268 255 257 260 254 241 229 215
244 224 236 253 255 280 300 306 311 330 348 220 197 202 200 225 268 274 238 224 198 224 215 247 259 174 171 142 163 44 153 80 216 203 223 229 203 344 343 347 347 337 331 325 308 285 260 256 268 276 250 229 221 214
215 229 252 251 252 283 308 305 313 335 340 35 147 114 146 228 228 248 223 215 211 226 183 207 205 167 130 123 92 49 121 79 250 143 217 239 115 347 348 350 353 344 344 349 343 330 285 258 258 264 246 227 217 210
221 235 241 219 251 286 309 295 315 327 327 161 145 142 166 194 241 229 192 212 209 173 61 123 117 134 135 129 78 88 153 223 118 203 235 123 353 356 355 351 358 1 359 4 13 8 310 274 271 257 228 218 218 208
222 231 245 218 254 287 307 279 310 323 289 187 197 170 202 207 235 211 184 357 23 118 118 112 101 152 136 87 150 168 209 131 231 234 218 63 350 358 6 6 1 3 7 9 11 7 4 351 327 230 215 219 215 210
226 213 208 227 268 290 278 266 307 319 245 179 194 224 206 253 291 240 154 127 256 164 147 155 145 192 90 152 198 170 199 233 221 207 115 344 358 4 12 15 12 9 7 6 6 360 354 340 278 248 228 221 216 223
205 200 225 250 280 261 218 277 300 268 255 222 232 266 240 143 208 243 230 197 242 209 212 198 162 175 210 172 170 212 223 223 182 153 140 35 29 14 10 8 8 8 8 5 2 358 352 339 302 266 245 234 219 214
185 212 238 259 262 235 263 291 243 191 236 241 246 241 262 284 263 221 208 168 200 273 234 200 205 187 117 191 217 203 219 167 159 149 88 23 357 334 349 352 351 357 2 1 1 358 354 335 307 271 257 245 230 224
206 225 237 255 219 251 260 203 222 214 242 239 243 289 234 244 270 235 218 207 186 233 266 269 137 206 219 201 222 172 161 159 167 200 211 324 324 310 325 331 335 334 344 350 352 353 347 340 330 304 270 257 250 230
248 234 222 204 220 241 267 226 223 257 248 267 259 249 245 237 235 240 232 234 241 253 278 263 235 215 230 220 180 176 172 175 193 216 269 303 303 308 319 323 323 320 320 325 332 336 336 328 314 296 281 258 247 238
240 208 192 206 213 208 258 231 233 259 254 252 254 258 243 236 233 241 242 242 240 236 238 216 221 217 217 215 198 194 178 193 221 256 283 275 292 303 313 326 331 329 322 312 309 315 311 309 309 292 275 261 249 241
187 183 204 222 216 220 267 258 242 252 267 256 231 226 259 255 246 246 250 226 209 225 238 234 231 235 231 215 199 199 215 244 259 264 281 296 301 309 318 324 324 327 328 324 320 318 314 305 291 284 274 262 250 240
194 199 200 198 203 214 244 238 250 254 244 263 251 233 236 231 217 212 180 198 231 233 218 232 237 229 226 223 221 231 238 238 248 263 279 291 302 309 315 317 317 318 320 321 324 315 307 306 290 276 274 268 251 236
208 198 189 177 191 211 224 210 231 237 175 252 250 314 255 235 213 194 233 228 245 244 239 236 236 237 224 218 222 224 223 232 252 279 294 300 303 309 311 313 314 314 313 314 305 301 299 300 293 277 272 266 255 245
197 179 182 191 199 193 187 190 212 227 228 233 186 270 250 227 201 216 253 245 238 235 225 223 223 214 211 218 225 227 229 244 258 270 279 286 291 290 288 296 302 303 304 305 309 304 295 292 281 266 260 262 256 244
206 193 181 186 182 133 150 187 230 163 242 191 205 266 253 189 229 245 240 259 241 234 218 212 214 220 226 228 226 222 231 246 259 273 277 286 299 301 298 300 302 303 305 303 298 290 284 281 274 260 260 259 254 247
227 202 185 187 180 166 185 162 197 204 187 196 220 207 185 130 317 246 233 251 256 236 210 205 201 204 213 216 225 231 243 254 263 275 291 294 295 298 299 301 305 304 313 300 289 284 281 272 267 264 260 259 257 253
221 194 193 203 175 154 145 151 158 149 184 205 197 166 156 230 241 248 244 244 223 181 177 187 197 208 221 220 240 252 260 268 273 283 291 295 297 296 293 293 296 299 299 294 285 279 279 273 262 257 264 263 256 253
216 178 174 181 186 190 148 167 179 194 187 188 149 187 204 209 242 240 218 196 195 193 199 209 217 230 242 251 260 266 270 277 285 290 293 293 291 291 292 292 289 287 285 283 280 272 267 269 264 253 253 261 260 255
185 184 158 151 156 199 203 183 202 209 193 178 177 207 233 232 254 263 236 218 217 218 226 240 252 259 261 263 265 268 273 281 286 287 289 291 294 296 299 292 288 284 278 272 268 267 268 271 269 254 247 254 259 253
184 175 150 170 175 209 206 195 204 199 197 203 217 243 255 262 272 274 262 253 250 252 267 273 273 270 273 273 273 275 278 280 282 286 288 290 294 296 297 296 289 281 272 265 267 266 259 255 246 242 245 245 242 238
168 179 152 175 213 197 188 193 198 205 217 232 239 249 258 275 276 279 277 274 270 268 268 270 276 277 271 271 272 278 284 289 289 288 289 290 291 294 296 295 289 279 264 256 261 258 252 242 234 235 235 238 236 233
170 173 147 155 211 170 167 175 186 213 232 237 246 244 258 266 272 276 264 267 263 257 256 253 251 254 265 274 283 290 292 295 297 298 296 295 294 295 295 295 291 285 262 252 257 248 242 237 238 235 233 232 226 222
130 132 117 122 133 167 160 154 168 291 250 252 247 239 233 238 246 251 251 241 235 235 228 232 245 263 280 289 293 296 300 302 303 304 304 300 301 298 294 287 279 271 263 254 243 238 232 230 228 230 228 223 217 211
Height
1486 1487 1487 1486 1484 1482 1482 1480 1478 1476 1473 1470 1469 1467 1466 1465 1462 1461 1460 1458 1458 1455 1446 1446 1445 1444 1442 1441 1444 1447 1451 1452 1454 1456 1457 1455 1455 1452 1452 1451 1453 1454 1457 1456 1459 1457 1454 1430 1434 1436 1428 1424 1423 1423
1482 1482 1481 1480 1480 1478 1479 1476 1475 1474 1470 1467 1465 1464 1463 1462 1461 1460 1458 1457 1456 1456 1447 1444 1442 1442 1442 1443 1442 1444 1446 1447 1449 1452 1454 1452 1453 1453 1454 1452 1447 1450 1446 1448 1449 1442 1430 1430 1429 1427 1424 1423 1422 1421
1477 1476 1475 1475 1475 1475 1473 1471 1471 1470 1467 1464 1462 1460 1459 1459 1458 1458 1455 1454 1454 1451 1444 1441 1437 1438 1439 1440 1441 1443 1445 1446 1447 1449 1449 1451 1456 1453 1453 1450 1442 1439 1437 1439 1438 1428 1429 1428 1427 1425 1424 1422 1420 1419
1471 1471 1471 1471 1471 1470 1469 1467 1467 1466 1464 1461 1458 1457 1455 1454 1454 1453 1451 1452 1452 1452 1447 1434 1433 1434 1436 1438 1440 1441 1443 1445 1447 1448 1449 1449 1450 1448 1449 1446 1445 1440 1438 1435 1435 1428 1426 1425 1425 1424 1422 1421 1419 1418
1466 1467 1467 1467 1467 1467 1465 1464 1463 1461 1459 1456 1454 1452 1450 1448 1447 1447 1446 1446 1448 1452 1444 1433 1428 1430 1433 1435 1437 1439 1441 1443 1446 1447 1447 1447 1446 1447 1445 1445 1443 1436 1434 1438 1433 1426 1426 1424 1423 1422 1420 1418 1417 1417
1462 1462 1462 1462 1462 1462 1462 1460 1459 1457 1454 1451 1449 1447 1444 1442 1441 1441 1441 1441 1441 1445 1446 1434 1425 1427 1431 1433 1435 1438 1439 1441 1443 1444 1442 1443 1444 1445 1444 1440 1431 1431 1431 1429 1426 1424 1423 1421 1420 1419 1418 1417 1416 1416
1457 1457 1458 1458 1458 1459 1458 1457 1455 1453 1450 1446 1443 1441 1439 1437 1437 1439 1441 1439 1439 1443 1443 1430 1420 1426 1429 1431 1434 1436 1438 1439 1441 1441 1441 1441 1442 1443 1437 1435 1429 1429 1427 1424 1421 1420 1418 1417 1416 1416 1416 1415 1415 1415
1452 1453 1454 1455 1455 1455 1455 1452 1451 1449 1446 1442 1439 1439 1437 1436 1436 1438 1438 1438 1440 1441 1438 1429 1423 1425 1429 1430 1432 1434 1436 1438 1438 1439 1439 1439 1439 1438 1433 1431 1430 1427 1423 1420 1418 1417 1416 1415 1414 1414 1414 1414 1413 1414
1448 1449 1449 1450 1451 1452 1451 1449 1447 1445 1441 1438 1437 1438 1437 1437 1437 1438 1438 1438 1438 1441 1434 1427 1426 1425 1428 1429 1430 1433 1434 1435 1437 1435 1434 1436 1431 1430 1433 1432 1428 1426 1424 1420 1416 1415 1414 1412 1412 1412 1412 1411 1412 1412
1444 1445 1446 1447 1447 1448 1448 1446 1445 1442 1438 1436 1437 1438 1436 1436 1436 1436 1438 1437 1436 1434 1432 1429 1425 1424 1427 1427 1429 1430 1431 1431 1431 1432 1432 1430 1429 1431 1430 1429 1427 1423 1420 1417 1413 1410 1410 1409 1410 1410 1409 1410 1410 1411
1439 1441 1443 1444 1445 1446 1445 1443 1442 1439 1436 1435 1434 1436 1436 1435 1436 1435 1434 1433 1431 1430 1427 1425 1425 1425 1427 1427 1426 1428 1430 1432 1431 1432 1430 1430 1426 1430 1428 1426 1423 1420 1417 1414 1411 1407 1407 1407 1407 1407 1406 1407 1408 1410
1436 1438 1440 1442 1443 1443 1442 1441 1439 1437 1435 1434 1433 1434 1435 1436 1435 1435 1431 1428 1427 1425 1423 1424 1425 1425 1427 1427 1428 1429 1431 1434 1429 1431 1431 1426 1429 1428 1425 1422 1419 1417 1413 1409 1406 1404 1403 1402 1403 1403 1403 1404 1406 1408
1433 1435 1436 1438 1440 1440 1439 1438 1436 1435 1434 1434 1434 1434 1435 1435 1434 1430 1423 1424 1423 1422 1422 1423 1425 1426 1427 1428 1429 1430 1431 1431 1430 1430 1424 1426 1428 1426 1423 1420 1417 1414 1411 1407 1404 1402 1402 1401 1400 1400 1400 1403 1406 1408
1431 1432 1434 1435 1437 1437 1437 1435 1434 1433 1432 1433 1433 1433 1432 1430 1427 1425 1423 1423 1423 1423 1423 1423 1424 1426 1427 1429 1430 1430 1428 1429 1429 1427 1421 1428 1427 1425 1423 1419 1415 1412 1409 1407 1405 1402 1401 1401 1399 1399 1401 1404 1406 1407
1429 1430 1432 1433 1434 1434 1433 1432 1432 1431 1431 1431 1432 1428 1425 1424 1424 1424 1423 1423 1424 1424 1424 1425 1426 1427 1427 1428 1428 1428 1428 1423 1420 1418 1424 1426 1425 1424 1422 1419 1416 1412 1409 1407 1404 1403 1402 1401 1401 1401 1400 1401 1403 1405
1426 1428 1429 1430 1431 1430 1431 1431 1429 1429 1429 1429 1428 1426 1423 1423 1423 1424 1423 1422 1424 1424 1424 1425 1424 1424 1423 1424 1425 1423 1422 1414 1418 1422 1423 1423 1423 1422 1421 1419 1416 1413 1410 1408 1406 1404 1402 1401 1401 1401 1401 1401 1402 1403
1424 1425 1426 1428 1429 1429 1429 1428 1427 1426 1427 1427 1424 1422 1423 1422 1421 1422 1423 1422 1422 1424 1422 1422 1420 1417 1422 1420 1420 1417 1414 1416 1418 1420 1421 1421 1421 1420 1419 1418 1415 1413 1410 1408 1406 1404 1402 1401 1401 1400 1400 1400 1400 1402
1422 1423 1425 1426 1427 1428 1427 1426 1426 1426 1425 1423 1422 1420 1420 1420 1420 1421 1421 1421 1422 1422 1422 1420 1420 1419 1416 1412 1414 1412 1414 1416 1418 1419 1420 1420 1419 1418 1417 1415 1413 1411 1409 1407 1405 1403 1402 1400 1399 1399 1399 1399 1400 1401
1419 1421 1423 1425 1426 1427 1426 1426 1426 1423 1421 1420 1420 1420 1419 1419 1419 1419 1420 1420 1420 1421 1421 1420 1418 1414 1411 1407 1407 1407 1409 1411 1414 1416 1417 1417 1416 1415 1414 1412 1410 1408 1407 1405 1403 1402 1400 1399 1398 1397 1397 1397 1398 1399
1417 1419 1422 1424 1425 1425 1425 1425 1424 1422 1420 1420 1418 1418 1418 1417 1416 1417 1418 1419 1419 1420 1419 1416 1409 1405 1405 1405 1405 1407 1409 1411 1412 1413 1414 1414 1414 1412 1411 1409 1407 1405 1404 1402 1401 1399 1398 1397 1396 1395 1395 1395 1396 1397
1414 1417 1420 1422 1424 1425 1424 1422 1421 1420 1419 1418 1417 1417 1415 1414 1414 1414 1415 1417 1419 1414 1409 1401 1399 1401 1402 1403 1404 1406 1407 1408 1409 1410 1410 1410 1410 1409 1408 1406 1404 1403 1401 1399 1397 1396 1395 1394 1393 1392 1392 1392 1393 1394
1411 1414 1417 1420 1422 1422 1422 1420 1420 1419 1419 1417 1417 1415 1414 1413 1412 1411 1412 1413 1408 1397 1395 1395 1396 1397 1398 1399 1401 1402 1404 1405 1406 1407 1407 1407 1406 1405 1404 1403 1401 1399 1398 1397 1395 1393 1392 1391 1390 1389 1389 1389 1389 1390
1409 1412 1415 1417 1419 1418 1419 1418 1419 1417 1417 1415 1415 1414 1411 1410 1409 1409 1408 1402 1392 1386 1387 1390 1392 1393 1395 1396 1397 1399 1401 1402 1403 1403 1403 1402 1402 1401 1399 1398 1397 1395 1393 1392 1391 1389 1387 1387 1386 1385 1386 1385 1386 1388
1406 1409 1411 1412 1413 1415 1415 1415 1416 1416 1416 1415 1416 1414 1409 1407 1407 1406 1401 1389 1379 1379 1380 1382 1385 1388 1390 1391 1392 1395 1397 1398 1399 1399 1400 1399 1398 1398 1397 1395 1394 1392 1390 1387 1385 1384 1383 1382 1382 1381 1381 1381 1382 1383
1406 1405 1405 1407 1409 1411 1414 1414 1413 1414 1413 1411 1411 1408 1406 1406 1406 1403 1392 1377 1372 1373 1376 1378 1380 1383 1385 1387 1389 1391 1393 1394 1395 1394 1395 1394 1393 1391 1390 1389 1387 1386 1384 1382 1380 1379 1378 1377 1377 1376 1376 1377 1377 1378
1399 1395 1396 1395 1400 1403 1404 1411 1410 1408 1407 1407 1405 1405 1405 1405 1406 1394 1379 1370 1369 1370 1371 1373 1376 1379 1381 1383 1385 1387 1388 1389 1390 1388 1388 1387 1386 1384 1382 1381 1379 1377 1378 1377 1374 1372 1372 1372 1371 1371 1371 1372 1373 1374
1389 1387 1389 1390 1390 1392 1396 1397 1398 1400 1402 1401 1402 1404 1404 1404 1394 1376 1368 1368 1369 1370 1371 1373 1375 1377 1379 1380 1381 1382 1383 1383 1383 1383 1381 1379 1377 1376 1375 1374 1372 1371 1369 1368 1368 1366 1365 1364 1365 1365 1365 1367 1368 1369
1376 1377 1381 1383 1386 1387 1388 1391 1393 1393 1392 1392 1395 1398 1395 1388 1376 1368 1367 1367 1368 1369 1371 1372 1373 1374 1375 1376 1376 1376 1376 1376 1375 1373 1372 1370 1369 1368 1367 1366 1364 1363 1360 1359 1358 1358 1358 1357 1357 1358 1359 1360 1362 1363
1370 1372 1374 1379 1381 1382 1380 1380 1379 1378 1378 1380 1383 1381 1376 1371 1368 1367 1367 1366 1367 1367 1368 1369 1369 1370 1370 1370 1370 1369 1369 1368 1367 1364 1362 1360 1359 1359 1359 1357 1355 1353 1352 1351 1351 1350 1350 1350 1350 1351 1353 1355 1356 1357
1361 1366 1367 1369 1372 1371 1366 1368 1368 1369 1371 1371 1371 1370 1368 1365 1365 1365 1365 1364 1364 1364 1364 1363 1362 1362 1362 1362 1361 1361 1361 1359 1358 1357 1354 1352 1350 1349 1347 1347 1346 1345 1343 1342 1342 1342 1343 1343 1344 1346 1347 1348 1349 1352
1352 1357 1359 1361 1362 1361 1361 1362 1364 1366 1368 1367 1367 1367 1364 1361 1357 1356 1356 1356 1355 1354 1354 1354 1354 1354 1354 1354 1354 1353 1353 1352 1351 1349 1346 1344 1341 1340 1338 1337 1336 1335 1334 1334 1334 1334 1335 1336 1337 1339 1341 1343 1346 1348
1346 1347 1350 1358 1359 1359 1360 1361 1363 1364 1364 1363 1362 1360 1359 1358 1354 1350 1344 1343 1343 1344 1346 1347 1348 1349 1349 1349 1349 1348 1346 1345 1343 1340 1338 1335 1333 1331 1330 1328 1327 1326 1326 1326 1327 1328 1329 1330 1332 1334 1337 1339 1342 1344
1345 1346 1349 1351 1355 1356 1358 1360 1361 1362 1361 1359 1356 1355 1354 1355 1350 1342 1338 1338 1340 1341 1342 1343 1344 1345 1345 1344 1343 1342 1339 1337 1334 1332 1329 1327 1325 1323 1322 1321 1321 1321 1321 1321 1322 1323 1324 1326 1328 1331 1333 1336 1339 1342